AO-07 1 07530U 74089B 21336.79194885 -.00000044 00000-0 12875-4 0 9995 2 07530 101.8791 311.2548 0012498 59.0890 8.6278 12.53651669153063 UO-11 1 14781U 84021B 21336.49836714 .00000334 00000-0 46798-4 0 9991 2 14781 97.6027 328.1577 0007042 245.0961 114.9523 14.83375742 10849 LO-19 1 20442U 90005G 21336.48268381 .00000034 00000-0 29052-4 0 9990 2 20442 98.7658 293.6621 0012348 31.8281 328.3646 14.33008820664891 HUBBLE 1 20580U 90037B 21336.56020955 .00001035 00000-0 51372-4 0 9992 2 20580 28.4712 32.6100 0002924 75.4649 37.8227 15.09861876536425 MET-2/21 1 22782U 93055A 21336.47427115 .00000062 00000-0 42214-4 0 9994 2 22782 82.5478 170.5756 0022330 177.3175 246.8646 13.83842186426764 AO-27 1 22825U 93061C 21336.78070255 .00000026 00000-0 27884-4 0 9998 2 22825 98.9075 358.4501 0007427 263.9092 96.1243 14.30133631470311 IO-26 1 22826U 93061D 21336.50128756 .00000032 00000-0 30306-4 0 9999 2 22826 98.9019 358.0580 0008016 250.2771 109.7546 14.30474847470506 FO-29 1 24278U 96046B 21336.37565168 -.00000001 00000-0 32626-4 0 9999 2 24278 98.5449 21.9306 0351283 74.5455 289.4191 13.53108151248957 NOAA-15 1 25338U 98030A 21336.75827793 .00000069 00000-0 47295-4 0 9990 2 25338 98.6665 3.6505 0010990 146.3651 213.8229 14.26073359225238 GO-32 1 25397U 98043D 21336.44154972 .00000003 00000-0 20863-4 0 9997 2 25397 98.7922 281.6777 0001029 11.5302 348.5900 14.23723319215391 ISS 1 25544U 98067A 21336.70775771 .00004247 00000-0 85987-4 0 9994 2 25544 51.6437 229.4568 0004362 271.6918 182.8759 15.48732282314711 NO-44 1 26931U 01043C 21336.80071065 .00000020 00000-0 39192-4 0 9991 2 26931 67.0503 205.9608 0005974 279.3286 80.7140 14.30646105 53431 SO-50 1 27607U 02058C 21336.28712927 .00000173 00000-0 45024-4 0 9990 2 27607 64.5537 185.0803 0061452 335.2306 24.5848 14.75840358 19274 CO-55 1 27844U 03031E 21336.46447011 .00000130 00000-0 77855-4 0 9994 2 27844 98.6805 342.1345 0009126 317.0916 42.9549 14.22355096955863 CO-57 1 27848U 03031J 21336.50792406 .00000097 00000-0 63776-4 0 9993 2 27848 98.6857 342.7283 0009194 331.6759 28.3918 14.21925935955696 RS-22 1 27939U 03042A 21336.85074051 .00000309 00000-0 63783-4 0 9997 2 27939 98.1644 113.0216 0014165 107.8601 252.4150 14.67070086972217 NOAA-18 1 28654U 05018A 21336.80630192 .00000106 00000-0 81376-4 0 9999 2 28654 98.9755 42.1801 0014649 163.8542 196.3099 14.12662607852309 CO-58 1 28895U 05043F 21336.29028723 .00000332 00000-0 72308-4 0 9994 2 28895 98.0816 106.1035 0017506 45.4269 314.8359 14.64016520858565 Falconsat-3 1 30776U 07006E 21336.39675176 .00013937 00000-0 30537-3 0 9999 2 30776 35.4332 99.2076 0002466 1.2247 358.8487 15.43268387819044 CO-65 1 32785U 08021C 21336.49047874 .00000700 00000-0 80167-4 0 9997 2 32785 97.6325 309.0150 0013269 160.1577 200.0159 14.88912837737178 AAUSAT2 1 32788U 08021F 21336.46860213 .00001794 00000-0 16463-3 0 9998 2 32788 97.5181 324.2321 0013244 68.1024 292.1605 14.95989966738978 DO-64 1 32789U 08021G 21336.53330112 .00003938 00000-0 24604-3 0 9995 2 32789 97.3609 5.3754 0009706 286.1665 73.8496 15.09984737742187 CO-66 1 32791U 08021J 21336.48238352 .00001107 00000-0 11525-3 0 9999 2 32791 97.5899 314.7378 0014334 122.6666 237.5938 14.91678808737824 RS-30 1 32953U 08025A 21336.67881668 .00000021 00000-0 80971-4 0 9994 2 32953 82.5017 306.3023 0019266 333.7183 26.2921 12.43106023613886 PRISM 1 33493U 09002B 21336.47090459 .00002500 00000-0 21603-3 0 9998 2 33493 98.2105 307.3523 0016583 91.2795 269.0326 14.98129915699470 NOAA-19 1 33591U 09005A 21336.71516987 .00000099 00000-0 78638-4 0 9998 2 33591 99.1710 1.4957 0014249 24.1571 336.0265 14.12512092660673 SRMSAT 1 37841U 11058D 21336.40885947 .00000311 00000-0 25890-4 0 9991 2 37841 19.9737 5.9343 0011818 340.2559 48.9942 14.10713691523382 HRBE 1 37855U 11061F 21336.46623678 .00004824 00000-0 23154-3 0 9990 2 37855 101.7226 347.2775 0163234 290.6422 67.7354 15.08860599551507 RS-40 1 38735U 12041C 21336.55190883 .00000010 00000-0 12022-5 0 9991 2 38735 82.4804 28.2771 0018331 81.4384 278.8777 12.42583895424064 ZACUBE-1 1 39417U 13066B 21336.48036043 .00000865 00000-0 11327-3 0 9999 2 39417 97.6127 312.2863 0057785 331.7348 28.0733 14.81700992433952 Delfi-N3xt 1 39428U 13066N 21336.55863745 .00000695 00000-0 11654-3 0 9990 2 39428 97.7975 274.7352 0118825 186.3709 173.5993 14.68275083429636 GOMX-1 1 39430U 13066Q 21336.88950473 .00000604 00000-0 11780-3 0 9994 2 39430 97.8136 250.2775 0149369 304.7731 53.9498 14.59761023427616 LO-74 1 39440U 13066AA 21336.47280712 .00000785 00000-0 11413-3 0 9995 2 39440 97.6999 297.7368 0080830 51.0888 309.7494 14.76407261431217 AO-73 1 39444U 13066AE 21336.49486347 .00000969 00000-0 12346-3 0 9993 2 39444 97.6021 314.6886 0056547 321.0057 38.7086 14.82646420432921 SPROUT 1 39770U 14029E 21336.78530783 .00001851 00000-0 20292-3 0 9991 2 39770 97.9299 88.0901 0008881 22.4297 337.7304 14.88955293408384 DTUSAT-2 1 40030U 14033W 21336.54803371 .00000893 00000-0 10044-3 0 9996 2 40030 97.9247 263.8138 0011599 349.2766 10.8202 14.89202267404338 EO-80 1 40032U 14033Y 21336.58296744 .00000810 00000-0 91659-4 0 9993 2 40032 97.9253 263.8583 0011532 350.3318 9.7675 14.89164818404312 HODOYOSHI-1 1 40299U 14070B 21336.74632088 .00002015 00000-0 82793-4 0 9990 2 40299 97.2700 45.6575 0014280 110.9385 344.9742 15.25234355393064 FIREBIRD FU3 1 40377U 15003B 21336.78705224 .00006385 00000-0 22289-3 0 9998 2 40377 99.1125 153.7252 0112580 328.6183 30.8363 15.24204926378425 FIREBIRD FU4 1 40378U 15003C 21336.75715842 .00006251 00000-0 21782-3 0 9992 2 40378 99.1131 153.8597 0112614 328.4707 30.9809 15.24270167378420 GRIFEX 1 40379U 15003D 21336.74881786 .00003797 00000-0 15023-3 0 9996 2 40379 99.1135 141.6662 0124934 5.0584 355.1875 15.19369953377736 NO-84 1 40654U 15025D 21334.25513435 .00320060 54032-4 58416-3 0 2644 2 40654 54.9664 327.7871 0031359 137.8846 222.4647 15.99945301 33254 XW-2A 1 40903U 15049E 21336.77976257 .00007984 00000-0 15875-3 0 9997 2 40903 97.2147 30.7085 0013376 116.0495 353.9373 15.47123979348801 XW-2C 1 40906U 15049H 21336.83824398 .00002000 00000-0 10373-3 0 9997 2 40906 97.4915 337.1858 0013466 329.2163 152.2073 15.17257127343094 XW-2D 1 40907U 15049J 21336.78711885 .00002533 00000-0 12900-3 0 9997 2 40907 97.4900 336.9948 0012736 325.7374 119.9314 15.17649453343129 LILACSAT-2 1 40908U 15049K 21336.82706082 .00001033 00000-0 59199-4 0 9992 2 40908 97.5115 334.6253 0015132 344.0179 137.0471 15.14740462342711 XW-2E 1 40909U 15049L 21336.78378500 .00003614 00000-0 16882-3 0 9996 2 40909 97.4679 341.2105 0011478 308.2357 139.1035 15.20402641343503 XW-2F 1 40910U 15049M 21336.84874080 .00003612 00000-0 17113-3 0 9995 2 40910 97.4750 340.3704 0012545 307.8839 173.1057 15.19898962343297 XW-2B 1 40911U 15049N 21336.87138955 .00002533 00000-0 12933-3 0 9999 2 40911 97.4893 337.7322 0012709 326.6904 151.6923 15.17559844343021 DCBB 1 40912U 15049P 21336.82369390 .00004056 00000-0 17752-3 0 9990 2 40912 97.4438 344.7280 0012142 274.2484 211.0062 15.22555406343807 TW-1A 1 40928U 15051D 21336.84882583 .00013114 00000-0 24579-3 0 9996 2 40928 97.0643 357.8625 0010253 45.0036 129.9157 15.48725196347724 IO-86 1 40931U 15052B 21335.50103808 .00000658 00000-0 23668-5 0 9998 2 40931 5.9966 141.0240 0013723 250.4061 109.4548 14.76707179334033 ATHENOXAT-1 1 41168U 15077C 21336.69491613 .00004954 00000-0 20926-3 0 9998 2 41168 14.9910 103.2402 0010540 5.5830 115.6692 15.16782852330358 ChubuSat-2 1 41338U 16012B 21336.02541642 .00000792 00000-0 54292-4 0 9992 2 41338 31.0015 200.2105 0013602 353.9834 6.0637 15.00711455317796 ChubuSat-3 1 41339U 16012C 21336.76426364 .00000716 00000-0 48243-4 0 9992 2 41339 31.0104 192.5758 0013669 9.1004 350.9918 15.00844955317903 Horyu-4 1 41340U 16012D 21336.61685147 .00001267 00000-0 87319-4 0 9993 2 41340 31.0032 174.9152 0013592 42.5976 317.5712 15.02194890318091 [email protected] 1 41459U 16025D 21336.88806131 .00007576 00000-0 35986-3 0 9996 2 41459 98.1618 123.5148 0156588 214.1674 144.9446 15.09289912307817 AAUSAT4 1 41460U 16025E 21336.87763335 .00012203 00000-0 54199-3 0 9995 2 41460 98.1601 128.2915 0142045 195.2021 164.4960 15.13006462308162 LO-87 1 41557U 16033B 21336.76049067 .00004611 00000-0 15817-3 0 9996 2 41557 97.3930 69.8620 0012551 5.2361 154.1151 15.30599057307267 NuSat2 1 41558U 16033C 21336.78370751 .00004808 00000-0 15438-3 0 9993 2 41558 97.4070 74.5230 0011215 357.4773 119.8404 15.32731694307490 Lapan A3 1 41603U 16040E 21336.89322917 .00000524 00000-0 27149-4 0 9999 2 41603 97.2353 17.2317 0014700 126.9867 221.1269 15.20183905302166 Pratham 1 41783U 16059A 21336.35220399 .00000184 00000-0 44419-4 0 9991 2 41783 97.9428 20.5129 0034803 77.0524 283.4562 14.63196176276803 TY-1 1 41844U 16066D 21336.78897032 .00002930 00000-0 11491-3 0 9992 2 41844 97.3973 345.3134 0012408 264.0726 268.8877 15.26490250281579 CAS-2T 1 41847U 16066G 21336.41732821 .00000294 00000-0 53366-4 0 9998 2 41847 98.5804 36.0620 0365988 78.9232 285.2877 14.38294457266029 EO-88 1 42017U 17008BX 21336.45251499 .00006696 00000-0 23633-3 0 9991 2 42017 97.2983 40.9947 0004642 218.3284 141.7627 15.29550582266926 CAS-4B 1 42759U 17034B 21336.74841691 .00001487 00000-0 10166-3 0 9994 2 42759 43.0188 335.6387 0006892 142.2645 26.6750 15.10585523246594 CAS-4A 1 42761U 17034D 21336.84309704 .00001479 00000-0 10100-3 0 9991 2 42761 43.0189 334.0466 0007181 141.9720 284.6294 15.10672870246615 NIUSat 1 42766U 17036B 21336.56995511 .00003366 00000-0 14351-3 0 9993 2 42766 97.2300 16.5834 0013233 307.0478 52.9548 15.23529069246801 Aalto 1 1 42775U 17036L 21336.35834454 .00002793 00000-0 12031-3 0 9994 2 42775 97.2265 16.5268 0011808 307.6937 52.3229 15.23328678246751 URSA MAIOR 1 42776U 17036M 21336.59117367 .00003051 00000-0 12988-3 0 9997 2 42776 97.2278 17.3207 0011541 305.8770 54.1395 15.23663600246815 Max Valier Sat 1 42778U 17036P 21336.52863290 .00003204 00000-0 13350-3 0 9999 2 42778 97.2348 19.5010 0010112 308.1827 51.8499 15.24377773246883 Pegasus 1 42784U 17036V 21336.56288096 .00004115 00000-0 16565-3 0 9998 2 42784 97.2297 20.1197 0009727 311.2822 48.7578 15.25375428246976 NUDATSat 1 42787U 17036Y 21336.85397024 .00005997 00000-0 22271-3 0 9995 2 42787 97.2334 23.4249 0008450 299.8265 60.2134 15.27889789247036 SUCHAI 1 1 42788U 17036Z 21336.59604177 .00005141 00000-0 20012-3 0 9999 2 42788 97.2305 21.3812 0009139 307.2271 52.8133 15.26391794247123 SKCUBE 1 42789U 17036AA 21336.06839807 .00004950 00000-0 19490-3 0 9997 2 42789 97.2303 20.4944 0009119 310.1773 49.8666 15.26030427246945 VZLUSAT 1 1 42790U 17036AB 21336.52446559 .00006253 00000-0 23248-3 0 9992 2 42790 97.2335 23.0906 0008243 301.7453 58.2983 15.27840666247130 VENTA 1 1 42791U 17036AC 21336.38710355 .00004412 00000-0 17479-3 0 9999 2 42791 97.2298 20.7882 0008797 310.1141 49.9326 15.25881950246987 Robusta 1B 1 42792U 17036AD 21336.59842756 .00004893 00000-0 19098-3 0 9996 2 42792 97.2302 21.4578 0008665 308.4850 51.5611 15.26328703247064 D-SAT 1 42794U 17036AF 21336.52940745 .00001100 00000-0 98904-4 0 9990 2 42794 97.4550 347.4527 0125654 24.7838 335.9346 14.91803244242114 TechnoSat 1 42829U 17042E 21336.59523248 .00000391 00000-0 44325-4 0 9997 2 42829 97.4425 196.9680 0012947 310.0794 49.9289 14.91418279238745 QIKCOM-1 1 42983U 98067NF 21336.68579193 .00022337 00000-0 17339-3 0 9992 2 42983 51.6335 122.0523 0003005 258.6232 101.4429 15.71714015233812 AO-91 1 43017U 17073E 21336.50725656 .00001296 00000-0 10311-3 0 9991 2 43017 97.6923 233.7161 0254814 111.6985 251.1565 14.79982455217976 EcAMSat 1 43019U 98067NG 21336.48510525 .00947653 11839-4 50375-3 0 9995 2 43019 51.6347 61.7577 0007301 346.9353 13.1475 16.19233822316910 PICSAT 1 43132U 18004X 21336.15220876 .00005558 00000-0 21234-3 0 9990 2 43132 97.3957 49.1549 0008087 347.4586 12.6451 15.27001112216263 AO-92 1 43137U 18004AC 21335.84572880 .00003933 00000-0 15495-3 0 9992 2 43137 97.3929 48.1047 0008050 351.9595 8.1513 15.26160610216176 TianYi 2 1 43155U 18008A 21336.81679428 .00002257 00000-0 13072-3 0 9997 2 43155 97.3826 36.5925 0018592 105.2481 30.3032 15.13072063213523 Zhou Enlai 1 43156U 18008B 21336.85672782 .00002841 00000-0 16532-3 0 9991 2 43156 97.3873 36.4746 0015709 104.4461 17.6149 15.12725387213465 TianYi 6 1 43158U 18008D 21336.67446021 .00001908 00000-0 11436-3 0 9999 2 43158 97.3834 34.6221 0014922 104.7314 50.9873 15.12052044213353 S-Net D 1 43186U 18014G 21336.18017834 .00000210 00000-0 23099-4 0 9993 2 43186 97.6684 240.6472 0009435 236.9291 123.1026 14.97254408209394 S-Net B 1 43187U 18014H 21336.51431683 .00000148 00000-0 17778-4 0 9990 2 43187 97.6680 240.9352 0009463 235.6649 124.3678 14.97253603209443 S-Net A 1 43188U 18014J 21336.51449293 .00000153 00000-0 18160-4 0 9999 2 43188 97.6684 240.9881 0009463 235.7591 124.2735 14.97252608209449 S-Net C 1 43189U 18014K 21336.51501002 .00000142 00000-0 17267-4 0 9992 2 43189 97.6679 240.9269 0009478 235.6879 124.3446 14.97251677207991 FMN 1 1 43192U 18015A 21336.88211772 .00008527 00000-0 29449-3 0 9998 2 43192 97.5097 113.5381 0013696 12.3785 109.4270 15.30108632213324 Shaonian Xing 1 43199U 18015H 21336.86481492 .00005738 00000-0 20608-3 0 9990 2 43199 97.4885 109.9923 0015504 22.8451 128.0502 15.28960697213365 SurfSat 1 43614U 18070B 21336.55781676 .00010364 00000-0 22192-3 0 9997 2 43614 93.0247 16.1293 0015975 74.0143 286.2873 15.44634290180590 CP-7 DAVE 1 43615U 18070C 21336.35248564 .00010792 00000-0 23424-3 0 9994 2 43615 93.0252 15.9739 0016201 74.9691 285.3358 15.44227066180541 ELFIN-B 1 43616U 18070D 21336.37384144 .00018773 00000-0 34816-3 0 9996 2 43616 93.0205 16.4406 0015272 70.7504 289.5406 15.48783839180720 ELFIN-A 1 43617U 18070E 21336.39901369 .00021471 00000-0 38721-3 0 9991 2 43617 93.0259 17.4761 0014466 68.2331 292.0467 15.49587045180750 CubeBel-1 1 43666U 18083E 21336.88051219 .00003352 00000-0 15781-3 0 9992 2 43666 97.4417 3.0784 0012834 305.3408 178.8583 15.20162460171592 Changshagaoxin 1 43669U 18083H 21336.74705550 .00003119 00000-0 15263-3 0 9990 2 43669 97.4344 359.5139 0009013 304.7638 189.8713 15.18896132171426 Ten-Koh 1 43677U 18084G 21336.28442228 .00000627 00000-0 69826-4 0 9995 2 43677 97.9408 99.9759 0015570 196.9169 163.1531 14.90606295168303 PO-101 1 43678U 18084H 21336.74406808 .00000474 00000-0 52735-4 0 9992 2 43678 97.9448 103.1221 0009099 208.2003 151.8724 14.91845742168528 IRVINE 01 1 43693U 18088D 21336.56346753 .00011429 00000-0 41618-3 0 9994 2 43693 85.0338 83.0450 0016968 120.9261 239.3655 15.27932051170089 QO-100 1 43700U 18090A 21336.58974963 .00000162 00000-0 00000 0 0 9996 2 43700 0.0148 310.2380 0002126 325.6372 33.9288 1.00272861 11298 Reaktor Hello World 1 43743U 18096AA 21336.67690122 .00004914 00000-0 17147-3 0 9994 2 43743 97.3741 52.8853 0017643 44.2560 316.0088 15.29930930167840 MinXSS-2 1 43758U 18099A 21336.43456595 .00000757 00000-0 71814-4 0 9994 2 43758 97.6507 44.0107 0014817 201.4792 158.5810 14.96347637163632 AO-95 1 43770U 18099N 21336.46585589 .00001450 00000-0 13567-3 0 9998 2 43770 97.6479 42.7977 0013777 210.3643 149.6781 14.95570119163564 RANGE-B 1 43772U 18099Q 21336.45696202 .00001387 00000-0 12872-3 0 9991 2 43772 97.6572 44.0620 0013756 197.4428 162.6323 14.95945857163576 RANGE-A 1 43773U 18099R 21336.41967553 .00000707 00000-0 69045-4 0 9998 2 43773 97.6411 41.8972 0012956 196.8876 163.1915 14.95400227163542 MOVE-II 1 43780U 18099Y 21336.15174815 .00001866 00000-0 16981-3 0 9995 2 43780 97.6509 43.2420 0012606 206.5632 153.4945 14.96325811163544 SNUSat 2 1 43782U 18099AA 21336.47235219 .00001478 00000-0 13740-3 0 9997 2 43782 97.6480 43.2036 0012338 194.6153 165.4713 14.95795479163584 SnugLite 1 43784U 18099AC 21336.59944539 .00001346 00000-0 12506-3 0 9997 2 43784 97.6441 43.0113 0014491 203.0729 156.9843 14.95936814163627 ITASat 1 1 43786U 18099AE 21336.15296575 .00001003 00000-0 94767-4 0 9991 2 43786 97.6505 43.2867 0014397 204.1597 155.8951 14.95833350163559 EAGLET 1 1 43790U 18099AJ 21336.14936936 .00001130 00000-0 10527-3 0 9999 2 43790 97.6495 43.7599 0012670 206.8997 153.1569 14.96151358163282 ESEO 1 43792U 18099AL 21336.43130785 -.00000013 00000-0 39400-5 0 9994 2 43792 97.6456 43.4832 0012527 203.8643 156.1999 14.95848498163371 CSIM 1 43793U 18099AM 21336.48033020 .00002370 00000-0 21067-3 0 9999 2 43793 97.6505 44.2490 0012545 197.1213 162.9587 14.96997574163407 Astrocast 0.1 1 43798U 18099AS 21336.60602482 .00001495 00000-0 13663-3 0 9992 2 43798 97.6500 44.4809 0012341 183.7547 176.3584 14.96447757163665 JO-97 1 43803U 18099AX 21336.15363956 .00001207 00000-0 11215-3 0 9991 2 43803 97.6467 43.0252 0014324 203.7024 156.3539 14.96133298163566 Suomi 100 1 43804U 18099AY 21336.16299224 .00000633 00000-0 61307-4 0 9999 2 43804 97.6462 42.9856 0014395 204.3988 155.6553 14.96089938163574 Al Farabi 2 1 43805U 18099AZ 21336.87181380 .00001504 00000-0 13758-3 0 9995 2 43805 97.6467 43.9935 0014724 200.9238 159.1382 14.96377909163695 CHOMPTT 1 43855U 18104G 21336.57674498 .00003331 00000-0 13253-3 0 9991 2 43855 85.0368 182.0425 0014526 242.9344 117.0418 15.24773500164709 ISAT 1 43879U 18111D 21336.79713765 .00000516 00000-0 49913-4 0 9995 2 43879 97.6735 240.9850 0011599 260.4242 99.5692 14.96928245158232 UWE-4 1 43880U 18111E 21336.49199643 .00001751 00000-0 15643-3 0 9991 2 43880 97.6779 241.2630 0010328 260.0510 99.9546 14.97155844158224 Sparrow 1 43881U 18111F 21336.45575160 .00000728 00000-0 67840-4 0 9990 2 43881 97.6785 241.3961 0010960 259.2437 100.7551 14.97225684160220 Lume 1 1 43908U 18111AJ 21336.12848148 .00004281 00000-0 16249-3 0 9997 2 43908 97.2137 225.3478 0021643 59.0443 301.2919 15.27144700163250 FO-98 1 43933U 19003B 21336.54177536 .00034416 00000-0 10411-2 0 9995 2 43933 97.1655 12.1625 0014252 146.1494 214.0662 15.34022193159801 FO-99 1 43937U 19003F 21336.56003793 .00004673 00000-0 17852-3 0 9993 2 43937 97.1574 12.9203 0023828 132.9071 227.4174 15.26823912159904 MYSat 1 1 44045U 18092F 21336.68112524 .00011238 00000-0 26144-3 0 9996 2 44045 51.6370 323.8102 0010643 94.9851 265.2350 15.42757708157406 AstroCast 0.2 1 44083U 19018F 21336.63952353 .00005699 00000-0 24036-3 0 9996 2 44083 97.3532 34.4596 0014002 101.1437 259.1375 15.23607480148499 AISTechSat 3 1 44103U 19018AB 21336.77955762 .00003258 00000-0 13377-3 0 9996 2 44103 97.3396 35.0395 0014662 109.1201 346.2105 15.24825869148654 AISat 1 1 44104U 19018AC 21336.48775570 .00003858 00000-0 11799-3 0 9994 2 44104 97.4143 54.1580 0057020 116.1881 244.5240 15.32864562149407 Prox-1 1 44339U 19036A 21336.75200922 .00001560 00000-0 31398-3 0 9993 2 44339 24.0016 353.9735 0010179 218.6229 141.3535 14.53954227129771 Oculus-ASR 1 44348U 19036K 21336.52037303 .00022321 00000-0 27804-3 0 9994 2 44348 28.5118 90.7260 0303425 293.9931 62.9180 15.19084611134423 Armadillo 1 44352U 19036P 21336.42984912 .00045498 00000-0 48755-3 0 9993 2 44352 28.5290 54.2742 0256497 351.1226 8.4895 15.31407671134730 NO-104 1 44354U 19036R 21336.43143114 .00025689 00000-0 31113-3 0 9997 2 44354 28.5281 81.8844 0297261 305.8947 51.4394 15.20925574134503 NO-103 1 44355U 19036S 21336.77511180 .00056772 -52673-5 45554-3 0 9997 2 44355 28.5244 359.9470 0202400 79.4687 282.8648 15.46886534135348 Move-IIb 1 44398U 19038N 21336.89963363 .00004021 00000-0 21911-3 0 9995 2 44398 97.6051 300.4567 0025373 87.1299 273.2837 15.14711523133255 SONATE 1 44400U 19038Q 21336.59278004 .00001600 00000-0 93717-4 0 9991 2 44400 97.6134 299.8449 0026229 90.1433 270.2805 15.13004878133154 BeeSat 9 1 44412U 19038AC 21336.45484105 .00003690 00000-0 20544-3 0 9998 2 44412 97.6108 300.1329 0023544 94.4361 265.9561 15.14034363132865 JAISAT-1 1 44419U 19038F 21336.43690992 .00003441 00000-0 18940-3 0 9997 2 44419 97.6112 300.7958 0022455 92.4438 267.9365 15.14519582133219 LightSail-2 1 44420U 19036AC 21336.29802026 .00020460 00000-0 39006-2 0 9999 2 44420 24.0045 324.3519 0007031 229.0565 130.9320 14.62542955128066 Taurus 1 1 44530U 19059C 21336.85237432 .00000833 00000-0 24468-3 0 9990 2 44530 98.5502 68.6379 0012931 358.4882 1.6279 14.46328123117424 Duchifat 3 1 44854U 19089C 21336.78172973 .00001068 00000-0 90953-4 0 9996 2 44854 36.9630 184.9674 0007274 51.3230 308.8169 14.99829822108386 OPS-SAT 1 44878U 19092F 21336.54529341 .00002869 00000-0 14753-3 0 9998 2 44878 97.4746 157.7078 0012406 310.3943 49.6207 15.17209521108315 TO-108 1 44881U 19093C 21336.77989591 .00000178 00000-0 29443-4 0 9999 2 44881 97.9125 53.6669 0016486 104.5021 255.8019 14.81517000105657 FloripaSat 1 1 44885U 19093G 21336.76633811 .00000679 00000-0 91043-4 0 9994 2 44885 97.9148 54.5092 0015932 111.7288 248.5616 14.82488768105703 RS-44 1 44909U 19096E 21336.48508246 .00000029 00000-0 65426-4 0 9991 2 44909 82.5220 1.1628 0218371 60.4370 301.8303 12.79711329 90310 HO-107 1 45119U 19071J 21336.28118487 .00008030 00000-0 22397-3 0 9999 2 45119 51.6409 302.1905 0010597 170.9090 189.2087 15.37630548102971 Phoenix 1 45258U 98067RB 21336.25990211 .00028260 00000-0 31907-3 0 9999 2 45258 51.6363 206.3974 0006599 156.3398 203.7900 15.62235449101380 AztechSat-1 1 45261U 98067RE 21336.78464537 .00857102 40072-3 10648-2 0 9997 2 45261 51.6195 171.3155 0007827 239.1375 120.8869 16.07130109101918 QARMAN 1 45263U 98067RG 21336.15766678 .00105999 00000-0 62506-3 0 9996 2 45263 51.6329 190.6403 0007580 180.2305 179.8693 15.77314418101646 Quetzal 1 1 45598U 98067RL 21336.32019157 .00077188 00000-0 56977-3 0 9992 2 45598 51.6343 197.8047 0003763 183.1967 176.9008 15.72295391 90830 BY70-2 1 45857U 20042B 21336.82491003 .00002214 00000-0 31638-3 0 9992 2 45857 97.9725 50.7823 0011138 39.2003 321.0021 14.77636923 76400 UPMSat 2 1 46276U 20061E 21336.79304710 .00001532 00000-0 81235-4 0 9994 2 46276 97.4169 47.0669 0002815 112.8041 247.3490 15.16846644 69052 AmicalSat 1 46287U 20061R 21336.61789376 .00002067 00000-0 12768-3 0 9990 2 46287 97.4720 46.0901 0001675 205.0415 155.0734 15.10958370 68732 SALSAT 1 46495U 20068K 21336.63441405 .00001516 00000-0 11491-3 0 9998 2 46495 97.7065 273.2655 0015964 220.0543 139.9507 15.03698924 64602 BY70-3 1 46839U 20079N 21336.90025646 .00007635 00000-0 22404-3 0 9991 2 46839 97.2256 47.4281 0006063 334.9383 144.3253 15.35423727 60037 SPOC 1 46921U 98067RR 21336.28461269 .00027257 00000-0 33873-3 0 9995 2 46921 51.6390 216.3987 0001088 91.1143 268.9975 15.59771032 61003 Bobcat-1 1 46922U 98067RS 21336.36834514 .00048926 00000-0 49383-3 0 9991 2 46922 51.6397 210.9918 0002202 128.4254 231.6939 15.64849110 61041 Neutron-1 1 46923U 98067RT 21336.37824699 .00026355 00000-0 32943-3 0 9992 2 46923 51.6398 216.2735 0001539 91.7426 268.3743 15.59637269 61048 CAPE 3 1 47309U 21002A 21336.52112016 .00002868 00000-0 13537-3 0 9997 2 47309 60.6868 23.2548 0039083 137.0350 223.3800 15.21684671 48455 AO-109 1 47311U 21002C 21336.66558787 .00003317 00000-0 15152-3 0 9999 2 47311 60.6878 21.1633 0035603 132.2133 228.1985 15.22497898 48485 MiTEE 1 1 47314U 21002F 21336.54407591 .00005722 00000-0 23683-3 0 9995 2 47314 60.6855 18.7807 0036923 124.9685 235.4880 15.24649196 48526 ExoCube 2 1 47319U 21002L 21336.67769422 .00003168 00000-0 14686-3 0 9993 2 47319 60.6855 21.7503 0035938 135.0230 225.3777 15.22111041 48436 UVSQ-SAT 1 47438U 21006AB 21336.12675794 .00002563 00000-0 14588-3 0 9996 2 47438 97.4676 34.2047 0011295 234.5846 125.4331 15.13690978 47411 YUSAT 1 1 47439U 21006AC 21336.12578458 .00003006 00000-0 17004-3 0 9995 2 47439 97.4681 34.2173 0011140 234.7558 125.2631 15.13771732 47418 SOMP 2b 1 47445U 21006AJ 21336.55685054 .00002161 00000-0 12423-3 0 9991 2 47445 97.4648 34.4343 0010877 236.9333 123.0854 15.13502162 47478 IDEASSat 1 47458U 21006AX 21336.65112884 .00002599 00000-0 14923-3 0 9994 2 47458 97.4739 34.8370 0010038 234.1830 125.8469 15.13363035 47485 RSP-01 1 47925U 98067SB 21336.41951996 .00029404 00000-0 40017-3 0 9990 2 47925 51.6406 223.2853 0000774 157.6090 202.4936 15.57308756 40896 TAUSAT-1 1 47926U 98067SC 21336.78359043 .00034279 00000-0 42797-3 0 9999 2 47926 51.6392 219.7020 0000985 190.4157 169.6816 15.59526038 40966 Tsuru 1 47927U 98067SD 21335.95179828 .00025293 00000-0 35527-3 0 9998 2 47927 51.6408 226.1613 0000591 164.3163 195.7847 15.56542819 40815 STARS-EC 1 47928U 98067SE 21336.78619520 .00037593 00000-0 46789-3 0 9997 2 47928 51.6394 220.4719 0003741 63.9646 296.1732 15.59557987 40942 Maya-2 1 47929U 98067SF 21336.39686176 .00025136 00000-0 35273-3 0 9992 2 47929 51.6401 223.8814 0000635 181.3990 178.7000 15.56571915 40847 OPUSAT-II 1 47930U 98067SG 21336.39112651 .00043035 00000-0 52037-3 0 9991 2 47930 51.6398 221.5955 0001936 161.0888 199.0177 15.60259060 40919 GuaraniSat-1 1 47931U 98067SH 21336.39361001 .00025892 00000-0 36250-3 0 9997 2 47931 51.6402 223.8647 0000661 186.2876 173.8107 15.56617071 40883 CubeSX-Sirius-HSE 1 47951U 21022V 21336.89644220 .00001165 00000-0 83538-4 0 9997 2 47951 97.5447 235.5533 0023703 95.8283 264.5645 15.06053516 38409 CubeSX-HSE 1 47952U 21022W 21336.88980854 .00000922 00000-0 66930-4 0 9990 2 47952 97.5441 235.5562 0023570 95.3617 265.0299 15.06088518 38405 KSU-Cubesat 1 47954U 21022Y 21336.47656037 .00002186 00000-0 15253-3 0 9995 2 47954 97.5453 235.1956 0022903 97.2781 263.1051 15.06203126 38066 GRBAlpha 1 47959U 21022AD 21336.69051515 .00000967 00000-0 70037-4 0 9991 2 47959 97.5448 235.3804 0023447 96.4910 263.9014 15.06095066 37190 Orbicraft-Zorkiy 1 47960U 21022AE 21336.87807088 .00001283 00000-0 91381-4 0 9994 2 47960 97.5453 235.6282 0022854 95.8791 264.5082 15.06170389 37916 STECCO 1 47962U 21022AG 21336.77707750 .00002097 00000-0 14216-3 0 9995 2 47962 97.5420 235.8300 0018474 91.9985 345.3039 15.07400050 37226 DO-111 1 47963U 21022AH 21336.46545283 .00006398 00000-0 41231-3 0 9998 2 47963 97.5462 235.7959 0020792 89.0943 271.2667 15.08491460 37219 MO-110 1 47964U 21022AJ 21336.45181446 .00002823 00000-0 18823-3 0 9995 2 47964 97.5450 235.6410 0021370 90.5734 269.7943 15.07694365 37189 FEES 1 48082U 21022AL 21336.45507039 .00003971 00000-0 26538-3 0 9994 2 48082 97.5462 235.5205 0017655 87.6143 272.7106 15.07425525 36888 RamSat 1 48850U 98067SL 21336.43582667 .00018680 00000-0 29808-3 0 9994 2 48850 51.6413 227.8590 0004504 64.5620 295.5836 15.53240171 26584 MO-112 1 48868U 98067SP 21336.42754861 .00044408 00000-0 60006-3 0 9991 2 48868 51.6397 226.3044 0003824 99.9339 260.2085 15.57293250 25387 TUBIN 1 48900U 21059X 21336.90263466 .00001742 00000-0 10360-3 0 9996 2 48900 97.5297 103.3756 0011764 64.7793 51.1796 15.12524611 24195 IT-SPINS 1 49017U 21013G 21336.49747269 .00002747 00000-0 12755-3 0 9994 2 49017 51.6015 259.6570 0007395 69.8545 290.3227 15.23453294 23734 LEDSAT 1 49069U 21073D 21336.62773531 .00001761 00000-0 11982-3 0 9999 2 49069 97.5482 48.4024 0026671 246.7498 113.0922 15.07347516 16171 CUTE 1 49263U 21088D 21336.43968231 .00001134 00000-0 91363-4 0 9999 2 49263 97.6160 43.2753 0018967 27.4545 332.7678 15.01762287 9843 Binar-1 1 49272U 98067SR 21336.42579761 .00018203 00000-0 30799-3 0 9995 2 49272 51.6414 230.0303 0003225 303.9856 56.0827 15.51623902 8947 Maya-3 1 49273U 98067SS 21336.42002551 .00021945 00000-0 36487-3 0 9991 2 49273 51.6414 229.9924 0002821 296.9933 63.0769 15.51983173 8944 Maya-4 1 49274U 98067ST 21336.42162357 .00022068 00000-0 36757-3 0 9990 2 49274 51.6408 230.0031 0002757 295.0761 64.9942 15.51930330 8947 CUAVA-1 1 49275U 98067SU 21336.88306861 .00019485 00000-0 32501-3 0 9993 2 49275 51.6427 227.6686 0002757 315.8547 120.9147 15.51975724 8968 TeikyoSat 4 1 49396U 21102B 21336.62369119 -.00000031 00000-0 21404-5 0 9990 2 49396 97.5598 35.5166 0014335 188.1180 171.9815 15.00256148 3530 Z-Sat 1 49399U 21102E 21336.92967593 .00000552 00000-0 46548-4 0 9998 2 49399 97.5609 35.8764 0019547 172.4293 182.3306 15.01934545 3574 KOSEN 1 1 49402U 21102H 21336.86121057 .00001671 00000-0 12856-3 0 9990 2 49402 97.5585 35.8222 0023028 167.0117 253.1563 15.02839882 3576 /EX